#timestamp,LO_Frequency,Hit 
1500717615.9,286046843.0,N
1500717635.7,286046845.1,N
1500717655.5,286046842.9,N
1500717675.4,286046853.6,N
1500717695.2,286046866.5,N
1500717715.0,286046864.6,N
1500717715.9,286046864.6,N
1500717735.8,286046879.4,N
1500717755.6,286046872.2,N
1500717775.4,286046867.9,N
1500717795.2,286046868.3,N
1500717815.1,286046864.0,N
1500717816.0,286046864.0,N
1500717835.8,286046859.1,N
1500717855.7,286046860.7,N
1500717875.5,286046863.7,N
1500717895.3,286046862.5,N
1500717915.1,286046857.8,N
1500717935.9,286046849.7,N
1500717955.7,286046848.9,N
1500717975.5,286046850.4,N
1500717995.4,286046849.3,N
1500718015.2,286046859.8,N
1500718035.0,286046872.8,N
1500718035.9,286046872.8,N
1500718055.8,286046865.2,N
1500718075.6,286046856.6,N
1500718095.4,286046854.1,N
1500718115.3,286046854.8,N
1500718135.1,286046847.8,N
1500718155.8,286046844.7,N
1500718175.7,286046848.8,N
1500718195.5,286046846.1,N
1500718215.3,286046845.4,N
1500718235.2,286046838.7,N
1500718255.9,286046833.4,N
1500718275.7,286046848.7,N
1500718295.6,286046842.6,N
1500718315.4,286046842.1,N
1500718335.2,286046835.0,N
1500718355.1,286046828.8,N
1500718356.0,286046828.8,N
1500718375.8,286046833.2,N
1500718395.6,286046833.3,N
1500718415.5,286046835.9,N
1500718435.3,286046830.2,N
1500718455.1,286046829.8,N
1500718475.8,286046826.3,N
1500718495.7,286046826.0,N
1500718515.5,286046824.7,N
1500718535.3,286046825.2,N
1500718555.2,286046820.9,N
1500718575.0,286046821.6,N
1500718575.9,286046821.6,N
1500718595.7,286046821.5,N
1500718615.6,286046821.0,N
1500718635.4,286046819.0,N
1500718655.2,286046815.0,N
1500718675.1,286046817.1,N
1500718676.0,286046817.1,N
1500718695.8,286046814.7,N
1500718715.6,286046816.1,N
1500718735.5,286046811.1,N
1500718755.3,286046808.0,N
1500718775.1,286046805.5,N
1500718795.9,286046807.7,N
1500718815.7,286046806.5,N
1500718835.5,286046811.7,N
1500718855.4,286046812.2,N
1500718875.2,286046812.0,N
1500718895.0,286046810.8,N
1500718895.9,286046810.8,N
1500718915.8,286046805.1,N
1500718935.6,286046800.6,N
1500718955.4,286046801.1,N
1500718975.3,286046798.1,N
1500718995.1,286046800.8,N
1500718996.0,286046800.8,N
1500719015.8,286046796.6,N
1500719035.7,286046798.6,N
1500719055.5,286046795.9,N
1500719075.3,286046796.6,N
1500719095.2,286046798.5,N
1500719115.9,286046794.9,N
1500719135.7,286046792.1,N
1500719155.5,286046795.2,N
1500719175.4,286046795.7,N
1500719195.2,286046791.9,N
1500719215.0,286046793.0,N
1500719215.9,286046793.0,N
1500719235.8,286046790.7,N
1500719255.6,286046789.8,N
1500719275.4,286046785.7,N
1500719295.3,286046785.3,N
1500719315.1,286046784.3,N
1500719335.8,286046785.2,N
1500719355.7,286046783.4,N
1500719375.5,286046778.9,N
1500719395.3,286046781.9,N
1500719415.2,286046777.8,N
1500719435.0,286046778.6,N
1500719435.9,286046778.6,N
1500719455.8,286046781.3,N
1500719475.6,286046783.4,N
1500719495.4,286046785.2,N
1500719515.2,286046789.8,N
1500719535.1,286046792.3,N
1500719536.0,286046792.3,N
1500719555.8,286046787.2,N
1500719575.6,286046787.8,N
1500719595.5,286046787.4,N
1500719615.3,286046782.2,N
1500719635.1,286046777.3,N
1500719655.9,286046776.5,N
1500719675.7,286046771.9,N
1500719695.5,286046772.1,N
1500719715.4,286046776.7,N
1500719735.2,286046774.6,N
1500719755.0,286046779.3,N
1500719755.9,286046779.3,N
1500719775.8,286046796.5,N
1500719795.6,286046801.2,N
1500719815.4,286046807.2,N
1500719835.3,286046806.9,N
1500719855.1,286046810.4,N
1500719856.0,286046810.4,N
1500719875.8,286046803.4,N
1500719895.7,286046808.0,N
1500719915.5,286046803.3,N
1500719935.3,286046802.3,N
1500719955.2,286046800.6,N
1500719975.9,286046798.4,N
1500719995.7,286046805.3,N
1500720015.6,286046801.1,N
1500720035.4,286046795.5,N
1500720055.2,286046793.4,N
1500720075.0,286046795.7,N
1500720076.0,286046795.7,N
1500720095.8,286046794.4,N
1500720115.6,286046788.9,N
1500720135.4,286046782.4,N
1500720155.3,286046784.9,N
1500720175.1,286046786.3,N
1500720195.8,286046784.9,N
1500720215.7,286046784.6,N
1500720235.5,286046785.6,N
1500720255.3,286046783.6,N
1500720275.2,286046780.3,N
1500720295.9,286046779.1,N
1500720315.7,286046779.5,N
1500720335.6,286046776.3,N
1500720355.4,286046779.8,N
1500720375.2,286046786.4,N
1500720395.1,286046791.6,N
1500720396.0,286046791.6,N
1500720415.8,286046788.4,N
1500720435.6,286046787.8,N
1500720455.5,286046791.0,N
1500720475.3,286046785.9,N
1500720495.1,286046782.7,N
1500720515.9,286046781.4,N
1500720535.7,286046782.7,N
1500720555.5,286046782.1,N
1500720575.4,286046785.8,N
1500720595.2,286046784.5,N
1500720615.0,286046785.3,N
1500720615.9,286046785.3,N
1500720635.8,286046787.1,N
1500720655.6,286046790.9,N
1500720675.4,286046785.9,N
1500720695.2,286046785.4,N
1500720715.1,286046791.7,N
1500720716.0,286046791.7,N
1500720735.8,286046803.0,N
1500720755.6,286046807.2,N
1500720775.5,286046802.1,N
1500720795.3,286046801.4,N
1500720815.1,286046798.9,N
1500720835.9,286046797.9,N
1500720855.7,286046792.2,N
1500720875.5,286046789.0,N
1500720895.4,286046792.4,N
1500720915.2,286046793.4,N
1500720935.0,286046790.5,N
1500720935.9,286046790.5,N
1500720955.8,286046789.3,N
1500720975.6,286046789.7,N
1500720995.4,286046789.2,N
1500721015.3,286046784.8,N
1500721035.1,286046779.9,N
1500721055.8,286046777.0,N
1500721075.7,286046777.7,N
1500721095.5,286046778.0,N
1500721115.3,286046777.2,N
1500721135.2,286046776.0,N
1500721155.9,286046781.2,N
1500721175.7,286046776.2,N
1500721195.6,286046771.3,N
